Saskatoon John G. Diefenbaker International Airport

Jump to: basic info | weather | frequencies | runways | comments

Related pages: nearby airports | nearby navaids | notams | map

Basic information (top)

Codes: YXE CYXE
Location: lon 52.170799, lat -106.699997, elev 1,653 ft / 504 m msl
Status: medium_airport
Scheduled airline service: yes
Links: Wikipedia Mobile

Weather (top)

Current conditions (rec'd 2014/11/27 14:00Z):

CYXE 271400Z 06006KT 15SM SCT009 BKN160 M16/M17 A3008 RMK SC4AC3 SLP232

Airport forecast (rec'd 2014/11/27 12:39Z):

TAF CYXE 271138Z 2712/2812 09005KT P6SM SCT040 BKN080 
      TEMPO 2712/2715 6SM -SN BKN020 BKN040 
     FM271500 04008KT P6SM -SN BKN012 OVC030 
      TEMPO 2715/2719 3SM -SN OVC008 
     FM271900 04012KT 3SM -SN OVC010 
      TEMPO 2719/2812 1SM -SHSN OVC006 
      RMK NXT FCST BY 271800Z

Frequencies (top)

Verify before use: may be inaccurate or out of date.

A/D: 119.9 MHz (APP/DEP)
A/G: 118.3 MHz (MF SASKATOON RDO)
ATIS: 128.4 MHz (ATIS)
CNTR: 134.325 MHz (WINNIPEG CNTR)
GND: 121.9 MHz (GND)
RCO: 122.5 MHz (EDMONTON RDO)
TWR: 118.3 MHz (TWR)

Runways (top)

09/27: 8,300 x 200 ft (2,530 x 61 m) — paved — lighted

15/33: 6,200 x 150 ft (1,890 x 46 m) — paved — lighted

Latest comments (top)

Timmies: Timmies in the main terminal. Park at ... [read]

More... (top)

See also NOTAMs and nearby airports and navaids, or visit the Saskatoon John G. Diefenbaker International Airport page at the main OurAirports website..